Location: Br�znic
(45.9167°N, 22.6500°E)
Time: 13:34:41
(UTC+00:00)

Cosmos 1727 Rocket - Pass Details

Date: 03 March 2021
Orbit: 961 x 996 km, 82.9° (Epoch: 15 April)

Event Time Altitude Azimuth Distance (km) Brightness Sun altitude
Rises 18:42:37 0° 351° (N) 3,658 7.4 -25.5°
Reaches altitude 10° 18:45:08 10° 351° (N) 2,708 6.6 -25.9°
Maximum altitude 18:51:21 90° 81° (E) 972 3.9 -26.9°
Enters shadow 18:52:56 53° 173° (S) 1,170 4.2 -27.2°
